Regional Weather Roundup
Issued by NWS Green Bay, WI

Home | Current Version | Previous Version | Text Only | Print | Product List | Glossary On
Versions: 1 2 3 4 5 6 7 8 9 10 11 12 13 14 15 16 17 18 19 20 21 22 23 24 25 26 27 28 29 30 31 32 33 34 35 36 37 38 39 40 41 42 43 44 45 46 47 48 49 50
000
ASUS43 KGRB 022011
RWRGRB

NORTH-CENTRAL AND NORTHEAST WISCONSIN REGIONAL WEATHER ROUNDUP
NATIONAL WEATHER SERVICE GREEN BAY WI
300 PM CDT SUN AUG 02 2015

WIZ005-009-010>012-018-019-022100-
NORTH CENTRAL WISCONSIN

CITY           SKY/WX    TMP DP  RH WIND       PRES   REMARKS
IRONWOOD       PTSUNNY   70  61  73 NW9G17    29.62R
MANITOWISH WTR CLOUDY    75  59  57 NW15      29.64S
ARBOR VITAE    PTSUNNY   74  63  66 NW7       29.64S
EAGLE RIVER    MOSUNNY   73  56  55 NW8       29.62F
LAND O LAKES   CLOUDY    72  62  69 SW6       29.63F
RHINELANDER    LGT RAIN  68  63  84 S3        29.64F
PHILLIPS       CLOUDY    73  63  71 NW3       29.64S
ANTIGO         MOSUNNY   76  64  64 N13G20    29.60F
TOMAHAWK       PTSUNNY   67  63  86 NW5       29.64F
MERRILL        NOT AVBL
$$

WIZ013-073-022100-
NORTHEAST WISCONSIN

CITY           SKY/WX    TMP DP  RH WIND       PRES   REMARKS
IRON MOUNTAIN  CLOUDY    68  61  78 NW5       29.58F
MARINETTE      CLOUDY    63  57  82 CALM      29.58R
OCONTO         CLOUDY    63  63 100 NE9       29.54R
$$

WIZ017-030-035>037-045-022100-
CENTRAL WISCONSIN

CITY           SKY/WX    TMP DP  RH WIND       PRES   REMARKS
MEDFORD        CLOUDY    77  67  72 NW18      29.63S
WAUSAU         PTSUNNY   80  67  64 NW15G23   29.57S
MOSINEE        PTSUNNY   79  70  73 NW14G21   29.60R
MARSHFIELD     PTSUNNY   78  69  73 NW12      29.60R THUNDER
WISC RAPIDS    MOSUNNY   89  61  38 W23G31    29.55F
STEVENS POINT  PTSUNNY   85  65  51 W12G24    29.56S
WAUPACA        MOSUNNY   94  63  35 SW23G33   29.51F HX  95
SHAWANO        PTSUNNY   77  66  68 NE21      29.51F
CLINTONVILLE   MOSUNNY   91  59  33 W17G30    29.48F HX  90
$$

WIZ038-039-048-051-022100-
FOX VALLEY

CITY           SKY/WX    TMP DP  RH WIND       PRES   REMARKS
NWS GREEN BAY  MOSUNNY   92  69  47 SW23G40   29.49F THUNDER HX  97
APPLETON       PTSUNNY   90  63  40 SW29G37   29.51F HX  90
OSHKOSH        SUNNY     90  69  50 SW22G31   29.52F HX  94
FOND DU LAC    SUNNY     89  70  53 SW23G38   29.55F HX  94
$$

WIZ022-050-052-022100-
EAST CENTRAL WISCONSIN

CITY           SKY/WX    TMP DP  RH WIND       PRES   REMARKS
STURGEON BAY   CLOUDY    61  55  82 E13G25    29.61F THUNDER
MANITOWOC      MOSUNNY   92  68  45 MISG      29.50F HX  96
SHEBOYGAN      SUNNY     91  69  48 SW28G39   29.52F HX  96
$$

LMZ563-521-522-541>543-022100-
LAKESHORE

STATION/POSITION TIME  TEMP    WIND        PRES    VSBY  WAVE
                       AIR SEA DIR/SP/G                  HT/PER
                 (UTC) (F)     (DEG/KT/KT) (MB)    (MI)  (FT/S)
SHEBOYGAN LKSHOR 2000   87     220/ 30/ 39  998.8F
KEWAUNEE LKSHORE 1900   63     180/ 14/ 16 1000.2F
ALGOMA MARINA    1927          230/ 10/ 12   N/A
NORTHPORT PIER   1900   69     180/  4/ 21 1002.7R
N MID LAKE BUOY  1950   67 69  270/ 14/ 17 1005.2R         2/ 5
CHAMBERS ISLAND  1900   65     300/ 32     1003.7R
MENOMINEE LKSHOR 1900   59      10/ 28/ 34 1002.7S
$$


USA.gov is the U.S. government's official web portal to all federal, state and local government web resources and services.